This is the latest recevied weather packets stored in our database for station/object OK2JCZ-6. If no packets are shown the sender has not sent any weather packets the latest 10 day(s).
| Time | Temp. | Humidity | Pressure | Rain* | Wind** | Luminosity | Snow |
|---|---|---|---|---|---|---|---|
| 1777280075 | 16.11° C | 28% | 1022.5 hPa | 0 mm | - | - | - |
| 1777279775 | 16.11° C | 29% | 1022.5 hPa | 0 mm | - | - | - |
| 1777279476 | 15.56° C | 29% | 1022.6 hPa | 0 mm | - | - | - |
| 1777279175 | 15.56° C | 28% | 1022.6 hPa | 0 mm | - | - | - |
| 1777278876 | 16.11° C | 27% | 1022.6 hPa | 0 mm | - | - | - |
| 1777278575 | 16.11° C | 27% | 1022.6 hPa | 0 mm | - | - | - |
| 1777278275 | 16.11° C | 27% | 1022.6 hPa | 0 mm | - | - | - |
| 1777277975 | 16.11° C | 27% | 1022.6 hPa | 0 mm | - | - | - |
| 1777277675 | 15° C | 27% | 1022.6 hPa | 0 mm | - | - | - |
| 1777277375 | 15° C | 27% | 1022.6 hPa | 0 mm | - | - | - |
| 1777277075 | 14.44° C | 29% | 1022.6 hPa | 0 mm | - | - | - |
| 1777276475 | 14.44° C | 27% | 1022.7 hPa | 0 mm | - | - | - |
| 1777276175 | 14.44° C | 29% | 1022.7 hPa | 0 mm | - | - | - |
| 1777275875 | 14.44° C | 29% | 1022.7 hPa | 0 mm | - | - | - |
| 1777275575 | 14.44° C | 28% | 1022.6 hPa | 0 mm | - | - | - |
| 1777275275 | 15.56° C | 29% | 1022.6 hPa | 0 mm | - | - | - |
| 1777274975 | 15.56° C | 28% | 1022.6 hPa | 0 mm | - | - | - |
| 1777274675 | 14.44° C | 29% | 1022.7 hPa | 0 mm | - | - | - |
| 1777274375 | 14.44° C | 31% | 1022.7 hPa | 0 mm | - | - | - |
| 1777273775 | 14.44° C | 27% | 1022.7 hPa | 0 mm | - | - | - |
| 1777273475 | 15° C | 29% | 1022.8 hPa | 0 mm | - | - | - |
| 1777272575 | 17.78° C | 26% | 1022.7 hPa | 0 mm | - | - | - |
| 1777271975 | 16.11° C | 39% | 1022.8 hPa | 0 mm | - | - | - |
| 1777271075 | 13.89° C | 40% | 1022.9 hPa | 0 mm | - | - | - |
| 1777270775 | 13.89° C | 41% | 1022.9 hPa | 0 mm | - | - | - |
* Rain latest hour (hover to see other rain measurements)
** Current wind speed in m/s (hover to see current wind gust speed)